Voltar ao catálogo

THORAD DELTA 1 DEB

AtivoSSO
NORAD 8152·DEBRIS·🇺🇸 United States

Lançado Nov 15, 1974 de Vandenberg Space Force Base

Loading…

Próximas Passagens (próximas 24 horas)

TLE

AtualizadoSource: Space-Track

Época: Sep 14, 2026, 12:07 UTC

1 08152U 74089S   26257.50523367  .00000015  00000-0  34870-3 0  9998
2 08152 101.8519 267.1284 0059297 178.4492 336.4072 12.60155883381938

Acompanhe THORAD DELTA 1 DEB em tempo real com AllMySat

Download on the App Store